Regional Weather Roundup
Issued by NWS

Home | Current Version | Previous Version | Graphics & Text | Print | Product List | Glossary On
Versions: 1 2 3 4 5 6 7 8 9 10 11 12 13 14 15 16 17 18 19 20 21 22 23 24 25 26 27 28 29 30 31 32 33 34 35 36 37 38 39 40 41 42 43 44 45 46 47 48 49 50
000
ASUS43 KLSX 221207
RWRMO

WEATHER SUMMARY FOR MISSOURI
NATIONAL WEATHER SERVICE SPRINGFIELD MO
600 AM CST WED NOV 22 2017

NOTE: "FAIR" INDICATES FEW OR NO CLOUDS BELOW 12,000 FEET WITH NO
       SIGNIFICANT WEATHER AND/OR OBSTRUCTIONS TO VISIBILITY.
       CURRENT SKY AND/OR WEATHER CONDITIONS ARE NOT AVAILABLE FOR
       CHILLICOTHE AND FARMINGTON.

MOZ001>031-035>038-043-044-053-054-221300-
...NORTHERN AND WESTERN MISSOURI...

CITY           SKY/WX    TMP DP  RH WIND       PRES   REMARKS
KANSAS CTY INT CLOUDY    18  12  77 N3        30.41S
6HR MIN TEMP:  16; 6HR MAX TEMP:  24;

KANSAS C DTWN  CLOUDY    24  13  62 NW6       30.43S WCI  17
6HR MIN TEMP:  22; 6HR MAX TEMP:  29;

LEE`S SUMMIT   CLOUDY    21  14  74 N7        30.41S WCI  12
6HR MIN TEMP:  20; 6HR MAX TEMP:  27;

ST JOSEPH      CLOUDY    19  14  81 CALM      30.43S
6HR MIN TEMP:  16; 6HR MAX TEMP:  23;

CHILLICOTHE      N/A     17  14  88 CALM      30.44S
6HR MIN TEMP:  17; 6HR MAX TEMP:  26;

KIRKSVILLE     PTCLDY    18  14  84 NW5       30.40R WCI  11
6HR MIN TEMP:  17; 6HR MAX TEMP:  23;


$$
MOZ066>068-077>081-088>096-101>105-221300-
...SOUTHWEST MISSOURI...

CITY           SKY/WX    TMP DP  RH WIND       PRES   REMARKS
SPRINGFIELD    PTCLDY    21  17  84 N6        30.37R WCI  13
6HR MIN TEMP:  20; 6HR MAX TEMP:  31;

JOPLIN         CLOUDY    21  18  88 N3        30.42R
6HR MIN TEMP:  21; 6HR MAX TEMP:  30;

BRANSON        CLOUDY    25  19  80 NW7       30.38R WCI  17

$$
MOZ032>034-039>042-045>050-055>058-069>072-221300-
...CENTRAL MISSOURI...

CITY           SKY/WX    TMP DP  RH WIND       PRES   REMARKS
COLUMBIA       PTCLDY    21  15  78 NW5       30.40R WCI  15
6HR MIN TEMP:  21; 6HR MAX TEMP:  28;

JEFFERSON CITY PTCLDY    23  16  74 CALM      30.42R
6HR MIN TEMP:  23; 6HR MAX TEMP:  31;

ROLLA          CLOUDY    20  15  81 NW3       30.38R
6HR MIN TEMP:  19; 6HR MAX TEMP:  28;

SEDALIA        CLOUDY    22  18  85 N6        30.42S WCI  14
6HR MIN TEMP:  22; 6HR MAX TEMP:  29;

WHITEMAN AFB   CLEAR     19  13  77 N7        30.37S WCI  10
WARRENSBURG    CLOUDY    21  16  79 N3        30.42S
OSAGE BEACH    PTCLDY    22  17  81 CALM      30.41R

$$
MOZ051-052-059>065-221300-
...EAST CENTRAL MISSOURI...

CITY           SKY/WX    TMP DP  RH WIND       PRES   REMARKS
ST LOUIS INTL  CLOUDY    25  18  74 NW6       30.39R WCI  18
6HR MIN TEMP:  25; 6HR MAX TEMP:  31;

SPIRIT OF STL  PTCLDY    25  18  74 NW5       30.39S WCI  19
6HR MIN TEMP:  25; 6HR MAX TEMP:  31;

ST CHARLES     CLOUDY    25  17  72 N7        30.40R WCI  17
6HR MIN TEMP:  25; 6HR MAX TEMP:  30;


$$
MOZ072>076-082>087-097>100-106>115-221300-
...SOUTH CENTRAL AND SOUTHEAST MISSOURI...

CITY           SKY/WX    TMP DP  RH WIND       PRES   REMARKS
CAPE GIRARDEAU CLOUDY    29  20  69 N9        30.35S WCI  20
6HR MIN TEMP:  29; 6HR MAX TEMP:  35;

FARMINGTON     PTCLDY    26  18  71 N5        30.37R WCI  20
6HR MIN TEMP:  25; 6HR MAX TEMP:  31;

POPLAR BLUFF   PTCLDY    31  21  66 N9        30.37R WCI  23
6HR MIN TEMP:  31; 6HR MAX TEMP:  41;

WEST PLAINS    CLOUDY    26  17  68 N8        30.36R WCI  18
6HR MIN TEMP:  26; 6HR MAX TEMP:  36;


$$



USA.gov is the U.S. government's official web portal to all federal, state and local government web resources and services.